User: anonymous   Login
Location: Unspecified
(0.0000°N, 0.0000°E)
Time: 08:37:29
(UTC+00:00)
Language:

Vanguard 2 - Orbit

View from above orbital plane
View from above orbital plane
View from above satellite
View from above satellite

Ground track
Ground track

The orbit data is extracted from the following two-line orbital elements,

1 00011U 59001A   14352.53183505  .00000544  00000-0  29700-3 0  3473
2 00011 032.8694 030.3275 1471889 081.8115 294.6221 11.84743254378393
Epoch (UTC): 18 December 2014 12:45:50
Eccentricity: 0.1471889
inclination: 32.8694°
perigee height: 553 km
apogee height: 2946 km
right ascension of ascending node: 30.3275°
argument of perigee: 81.8115°
revolutions per day: 11.84743254
mean anomaly at epoch: 294.6221°
orbit number at epoch: 37839

The dashed part of the orbit path shows where the satellite is in the earth's shadow,  

DLR